Tracking 27380 objects as of 6-Jun-2023
HD Live streaming from Space Station
objects crossing your sky now

FENGYUN 1C DEB

Track FENGYUN 1C DEB now!
10-day predictions


NORAD ID: 30420
Int'l Code: 1999-025AEK
Perigee: 520.2 km
Apogee: 717.5 km
Inclination: 98.9 °
Period: 96.9 minutes
Semi major axis: 6989 km
RCS: 0.046 m2 (small)
Launch date: May 10, 1999
Source: People's Republic of China (PRC)
Launch site: Taiyaun Space Center, China (TSC)

Note: This is SATELLITE DEBRIS
Your satellite tracking list
Your tracking list is empty




NASA's NSSDC Master Catalog

Two Line Element Set (TLE):
1 30420U 99025AEK 23156.73902059  .00007700  00000-0  74971-3 0  9991
2 30420  98.9184  74.5390 0141148 162.6448 259.8183 14.85603651876824
Source of the keplerian elements: AFSPC